When you browse on this site, cookies collect data to enhance your experience and personalize the content and advertising you see.
Visit our Privacy Policy to learn more. By continuing to use the site, you agree to this use of cookies and data.
  • En España
  • Lista de países
  • Para 7 días
  • Temperatura del agua
  • Mapa Satelital
  • El tiempo en el mapa
  • Informadores
  • user-avatar
    Iniciar sesión

    Tiempo cada hora Bosangoa

    Hoy, 22 Abril, Lunes

    Tiempo Temperatura Precipitaciones Viento Presión Humedad
    00:00 +28°C° 0 mm 2 mps 706 mmHg 57%
    01:00 +27°C° 0 mm 2 mps 706 mmHg 59%
    02:00 +27°C° 0 mm 2 mps 706 mmHg 64%
    03:00 +26°C° 0 mm 2 mps 706 mmHg 70%
    04:00 +26°C° 0 mm 2 mps 706 mmHg 75%
    05:00 +26°C° 0 mm 2 mps 707 mmHg 74%
    06:00 +27°C° 0 mm 3 mps 707 mmHg 73%
    07:00 +28°C° 0 mm 3 mps 707 mmHg 72%
    08:00 +30°C° 0 mm 3 mps 708 mmHg 63%
    09:00 +33°C° 0 mm 3 mps 708 mmHg 54%
    10:00 +36°C° 0 mm 3 mps 709 mmHg 46%
    11:00 +38°C° 0 mm 2 mps 708 mmHg 38%
    12:00 +40°C° 0 mm 2 mps 708 mmHg 31%
    13:00 +43°C° 0 mm 1 mps 708 mmHg 23%
    14:00 +41°C° 0 mm 1 mps 707 mmHg 24%
    15:00 +40°C° 0 mm 2 mps 706 mmHg 25%
    16:00 +39°C° 0 mm 2 mps 705 mmHg 26%
    17:00 +37°C° 0 mm 2 mps 706 mmHg 30%
    18:00 +34°C° 0 mm 1 mps 706 mmHg 35%
    19:00 +32°C° 0 mm 1 mps 706 mmHg 40%
    20:00 +31°C° 0 mm 2 mps 706 mmHg 43%
    21:00 +30°C° 0 mm 2 mps 707 mmHg 46%
    22:00 +30°C° 0 mm 2 mps 707 mmHg 48%
    23:00 +29°C° 0 mm 2 mps 707 mmHg 53%

    Mañana, 23 Abril, Martes

    Tiempo Temperatura Precipitaciones Viento Presión Humedad
    00:00 +29°C° 0 mm 2 mps 707 mmHg 57%
    01:00 +28°C° 0 mm 3 mps 706 mmHg 61%
    02:00 +28°C° 0 mm 2 mps 706 mmHg 65%
    03:00 +27°C° 0 mm 2 mps 706 mmHg 68%
    04:00 +27°C° 0 mm 2 mps 706 mmHg 71%
    05:00 +27°C° 0 mm 2 mps 706 mmHg 70%
    06:00 +27°C° 0 mm 3 mps 707 mmHg 69%
    07:00 +28°C° 0 mm 3 mps 707 mmHg 68%
    08:00 +31°C° 0 mm 3 mps 708 mmHg 59%
    09:00 +34°C° 0 mm 3 mps 708 mmHg 50%
    10:00 +37°C° 0 mm 2 mps 709 mmHg 41%
    11:00 +39°C° 0 mm 2 mps 708 mmHg 34%
    12:00 +41°C° 0 mm 2 mps 708 mmHg 28%
    13:00 +43°C° 0 mm 1 mps 708 mmHg 21%
    14:00 +42°C° 0 mm 2 mps 707 mmHg 22%
    15:00 +41°C° 0 mm 2 mps 706 mmHg 23%
    16:00 +42°C° 0 mm 3 mps 705 mmHg 23%
    17:00 +38°C° 0 mm 2 mps 706 mmHg 29%
    18:00 +36°C° 0 mm 2 mps 706 mmHg 35%
    19:00 +32°C° 0 mm 2 mps 706 mmHg 41%
    20:00 +31°C° 0 mm 2 mps 707 mmHg 42%
    21:00 +31°C° 0 mm 2 mps 707 mmHg 44%
    22:00 +30°C° 0 mm 2 mps 708 mmHg 46%
    23:00 +30°C° 0 mm 2 mps 708 mmHg 48%

    Pasado mañana, 24 Abril, Miércoles

    Tiempo Temperatura Precipitaciones Viento Presión Humedad
    00:00 +29°C° 0 mm 2 mps 707 mmHg 51%
    01:00 +28°C° 0 mm 2 mps 707 mmHg 53%
    02:00 +28°C° 0 mm 2 mps 707 mmHg 56%
    03:00 +27°C° 0 mm 2 mps 706 mmHg 59%
    04:00 +27°C° 0 mm 2 mps 706 mmHg 62%
    05:00 +28°C° 0 mm 2 mps 707 mmHg 62%
    06:00 +28°C° 0 mm 2 mps 707 mmHg 62%
    07:00 +29°C° 0 mm 3 mps 708 mmHg 62%
    08:00 +33°C° 0 mm 3 mps 709 mmHg 54%
    09:00 +35°C° 0 mm 3 mps 709 mmHg 47%
    10:00 +38°C° 0 mm 3 mps 710 mmHg 39%
    11:00 +41°C° 0 mm 2 mps 709 mmHg 32%
    12:00 +43°C° 0 mm 1 mps 709 mmHg 25%
    13:00 +46°C° 0 mm 1 mps 708 mmHg 18%
    14:00 +44°C° 0 mm 1 mps 708 mmHg 20%
    15:00 +42°C° 0 mm 1 mps 707 mmHg 22%
    16:00 +40°C° 0 mm 2 mps 706 mmHg 23%
    17:00 +38°C° 0 mm 2 mps 706 mmHg 27%
    18:00 +36°C° 0 mm 2 mps 706 mmHg 32%
    19:00 +34°C° 0 mm 2 mps 707 mmHg 36%
    20:00 +32°C° 0 mm 2 mps 707 mmHg 39%
    21:00 +31°C° 0 mm 2 mps 707 mmHg 42%
    22:00 +30°C° 0 mm 2 mps 708 mmHg 44%
    23:00 +30°C° 0 mm 2 mps 708 mmHg 48%

    25 Abril, Jueves

    Tiempo Temperatura Precipitaciones Viento Presión Humedad
    00:00 +29°C° 0 mm 2 mps 707 mmHg 51%
    01:00 +29°C° 0 mm 2 mps 707 mmHg 54%
    02:00 +28°C° 0 mm 3 mps 707 mmHg 58%
    03:00 +28°C° 0 mm 3 mps 707 mmHg 62%
    04:00 +28°C° 0 mm 3 mps 707 mmHg 66%
    05:00 +29°C° 0 mm 3 mps 708 mmHg 66%
    06:00 +29°C° 0 mm 3 mps 708 mmHg 65%
    07:00 +29°C° 0 mm 3 mps 709 mmHg 64%
    08:00 +33°C° 0 mm 3 mps 709 mmHg 55%
    09:00 +36°C° 0 mm 3 mps 709 mmHg 46%
    10:00 +39°C° 0 mm 3 mps 710 mmHg 36%
    11:00 +42°C° 0 mm 2 mps 709 mmHg 31%
    12:00 +45°C° 0 mm 1 mps 709 mmHg 25%
    13:00 +45°C° 0 mm 0 mps 708 mmHg 19%
    14:00 +43°C° 0 mm 0 mps 707 mmHg 20%
    15:00 +43°C° 0 mm 1 mps 707 mmHg 21%
    16:00 +41°C° 0 mm 1 mps 706 mmHg 22%
    17:00 +39°C° 0 mm 1 mps 706 mmHg 28%
    18:00 +36°C° 0 mm 2 mps 706 mmHg 33%
    19:00 +34°C° 0 mm 2 mps 707 mmHg 39%
    20:00 +32°C° 0 mm 2 mps 707 mmHg 43%
    21:00 +31°C° 0 mm 2 mps 707 mmHg 47%
    22:00 +30°C° 0 mm 2 mps 708 mmHg 51%
    23:00 +29°C° 0 mm 2 mps 707 mmHg 53%

    26 Abril, Viernes

    Tiempo Temperatura Precipitaciones Viento Presión Humedad
    00:00 +29°C° 0 mm 2 mps 707 mmHg 54%
    01:00 +29°C° 0 mm 2 mps 706 mmHg 56%
    02:00 +28°C° 0 mm 2 mps 706 mmHg 58%
    03:00 +28°C° 0 mm 2 mps 706 mmHg 61%
    04:00 +27°C° 0 mm 2 mps 706 mmHg 64%
    05:00 +28°C° 0.1 mm 2 mps 707 mmHg 64%
    06:00 +28°C° 0.1 mm 3 mps 708 mmHg 65%
    07:00 +29°C° 0.1 mm 3 mps 708 mmHg 65%
    08:00 +33°C° 0.1 mm 3 mps 709 mmHg 56%
    09:00 +35°C° 0.1 mm 3 mps 709 mmHg 48%
    10:00 +38°C° 0.1 mm 3 mps 709 mmHg 39%
    11:00 +40°C° 0 mm 3 mps 708 mmHg 33%
    12:00 +42°C° 0 mm 2 mps 708 mmHg 27%
    13:00 +45°C° 0 mm 1 mps 707 mmHg 21%
    14:00 +43°C° 0 mm 1 mps 706 mmHg 22%
    15:00 +42°C° 0 mm 1 mps 706 mmHg 23%
    16:00 +41°C° 0 mm 1 mps 705 mmHg 25%
    17:00 +39°C° 0 mm 1 mps 705 mmHg 29%
    18:00 +36°C° 0 mm 1 mps 705 mmHg 33%
    19:00 +35°C° 0 mm 2 mps 706 mmHg 38%
    20:00 +32°C° 0 mm 2 mps 706 mmHg 42%
    21:00 +31°C° 0 mm 2 mps 706 mmHg 47%
    22:00 +30°C° 0 mm 2 mps 706 mmHg 51%
    23:00 +30°C° 0 mm 2 mps 706 mmHg 56%

    27 Abril, Sábado

    Tiempo Temperatura Precipitaciones Viento Presión Humedad
    00:00 +29°C° 0 mm 2 mps 706 mmHg 60%
    01:00 +29°C° 0 mm 2 mps 706 mmHg 64%
    02:00 +28°C° 0.1 mm 2 mps 706 mmHg 69%
    03:00 +27°C° 0.1 mm 2 mps 706 mmHg 74%
    04:00 +26°C° 0.1 mm 2 mps 706 mmHg 79%
    05:00 +27°C° 0 mm 2 mps 707 mmHg 77%
    06:00 +27°C° 0 mm 3 mps 707 mmHg 75%
    07:00 +28°C° 0 mm 4 mps 708 mmHg 73%
    08:00 +30°C° 0 mm 4 mps 708 mmHg 64%
    09:00 +34°C° 0 mm 4 mps 709 mmHg 54%
    10:00 +36°C° 0 mm 4 mps 709 mmHg 45%
    11:00 +38°C° 0 mm 4 mps 708 mmHg 38%
    12:00 +40°C° 0 mm 3 mps 708 mmHg 31%
    13:00 +43°C° 0 mm 3 mps 707 mmHg 24%
    14:00 +41°C° 0 mm 2 mps 707 mmHg 23%
    15:00 +41°C° 0 mm 2 mps 706 mmHg 23%
    16:00 +41°C° 0 mm 2 mps 706 mmHg 22%
    17:00 +39°C° 0 mm 2 mps 706 mmHg 28%
    18:00 +37°C° 0 mm 2 mps 706 mmHg 35%
    19:00 +34°C° 0 mm 3 mps 706 mmHg 41%
    20:00 +33°C° 0 mm 3 mps 707 mmHg 46%
    21:00 +33°C° 0 mm 3 mps 707 mmHg 52%
    22:00 +31°C° 0 mm 2 mps 708 mmHg 57%
    23:00 +29°C° 0.3 mm 2 mps 707 mmHg 64%
    Mostrar más